Showing default

SAUDISAT 5A, 43831

Orbit data source: Space-Track

SAUDISAT 5A, 43831 is a payload satellite owned by KACST (SA) in SSO that was launched on Fri, 07 Dec 2018 UTC via a CHANG ZHENG 2D launch vehicle from the Jiuquan Satellite Launch Center, China (JSC). Payload-class satellites include a variety of spacecraft equipped with specific instruments for various scientific and technological missions. These include communications satellites like Starlink; space stations such as the ISS; scientific satellites like the Hubble; Earth observation satellites from companies like Planet Labs, Umbra, and HawkEye 360; GPS; miniature CubeSats for education and research; and military/defense satellites.

Loading next visibility...
Identifier
43831, 2018-102A
Orbit
SSO
Country
Flag of UnknownUnknown / SAUD
Related business
Manufacturer
KACST
Mission
Operational Civil Technology
Bus & Motor
SAUDISAT, Unknown motor
Mass
425 kg wet, 425 kg dry
Launch date (UTC)
2018-12-07 (7 years ago)
Launch vehicle
CHANG ZHENG 2D
Launch site
Jiuquan Satellite Launch Center, China (JSC)
Object type
Payload
Rocket body
Debris
Shape & HBR
Box, 1.0 m
Radar Cross Section
2.500 m², Large (>1 m²)

Expand to show TLE details & history
Last TLE update: 5 hours ago

TLE from 5 hours ago
0 SAUDISAT 5A
1 43831U 18102A   26036.73905697  .00011353  00000-0  43709-3 0  9993
2 43831  97.3255 100.8726 0008667 234.4614 125.5817 15.26494407395612
Epoch: 2026-02-05T17:44Z
TLE epoch observation values (Epoch: 2026-02-05T17:44:14.522Z)
Latitude
-0.00003°
Longitude
58.92513°
Altitude
492.869 km
Speed
7.616 km/s
True Right ascension
06h 43m 29s
True Declination
0° 00' 00"
Sunlit
Object was in full shadow at epoch
Visualization orbit readout
Latitude
Unknown
Longitude
Unknown
Altitude
Unknown
Speed
Unknown
Apparent Right ascension
Unknown
Apparent Declination
Unknown
Sunlit
N/A
Visualization observer readout
Local Sidereal Time
01:18:05
Azimuth
Unknown
Elevation
Unknown
Doppler factor
Unknown
Orbital elements
Apogee altitude
489.202 km
Perigee altitude
477.309 km
Semi-major axis
6,861.392 km
Eccentricity
0.00087
Inclination
97.3255°
RAAN
100.8726°
Arg. of periapsis
234.4614°
True anomaly
125.66242°
Mean anomaly
125.5817°
Eccentric anomaly
125.62207°
Mean motion
3.81878 °/min
Orbital period
94.27 mins
BSTAR
0.00043709
Loading maneuver chart data...
Computing Atmospheric mass density...
Loading historical data...
Loading historical data...
Loading historical data...
Loading historical data...
Loading historical data...
Loading historical data...
Loading historical data...

Documentation

Showing up to 5 results
|